[[{"header":{"parameterUnit":"m.s-1","parameterCategory":1,"la1":30.2991,"la2":30.254,"lo1":-89.0895,"lo2":-89.0444,"dy":0.0017,"dx":0.0017,"nx":28,"ny":28,"refTime":"2024-10-13T09:00:00:Z","depth":0,"parameterNumber":2,"parameterNumberName":"U-component_of_WINDS"},"data":[0,0,0,0,0,0,0,0,0,0,0,0,0,0,0,0,0,0,0,0,0,0,0,0,0,0,0,0,0,0,0,0,0,0,0,0,0,0,0,0,0,0,0,0,0,0,0,0,0,0,0,0,0,0,0,0,0,0,3.1823,3.1824,0,3.197,3.1971,3.1973,3.1938,3.1935,3.1932,3.193,3.2083,3.209,3.2097,0,0,0,0,0,0,0,0,0,0,0,0,0,3.1516,3.1522,3.1823,3.1825,3.1826,3.1969,3.1972,3.1974,3.1938,3.1935,3.1932,3.1928,3.2081,3.2089,3.2097,0,0,0,0,0,0,0,0,0,0,0,0,0,3.1655,3.1523,3.1822,3.1826,3.1828,3.1969,3.1972,3.1974,3.1939,3.1935,3.1931,3.1927,3.2078,3.2088,3.2098,3.2246,0,0,3.2129,3.2134,0,0,0,0,0,0,0,0,3.1647,3.1666,3.1824,3.1826,3.1828,3.1931,3.192,3.2065,3.194,3.1897,3.193,3.1925,3.2036,3.205,3.2087,3.2253,3.226,3.213,3.2136,3.2141,3.2143,0,0,0,0,0,0,0,3.1637,3.1659,3.1881,3.1826,3.1829,3.1822,3.1837,3.1947,3.1989,3.19,3.1898,3.1916,3.2037,3.2077,3.209,3.2262,3.213,3.2139,3.2145,3.2149,3.2558,3.2563,0,0,0,0,0,0,3.1625,3.1652,3.1876,3.1885,3.1725,3.1831,3.1847,3.1902,3.1988,3.1996,3.1919,3.1914,3.2062,3.2078,3.2095,3.2274,3.214,3.215,3.2156,3.2553,3.2559,3.2564,0,0,0,0,0,0,3.1619,3.1645,3.187,3.1768,3.1796,3.184,3.1903,3.1908,3.1948,3.2002,3.2009,3.1952,3.2059,3.2081,3.2209,3.2279,3.2154,3.2164,3.2548,3.2555,3.2562,3.2632,0,0,0,0,0,0,3.161,3.1643,3.1699,3.1769,3.1802,3.198,3.1907,3.1914,3.1965,3.1959,3.2035,3.2043,3.2057,3.2194,3.2219,3.229,3.2172,3.2542,3.2551,3.256,3.2624,3.2641,3.2655,0,0,0,0,0,3.1599,3.1713,3.1702,3.1729,3.1872,3.1984,3.2003,3.2016,3.1971,3.2027,3.2062,3.2041,3.2267,3.2207,3.2235,3.2311,3.2537,3.2548,3.2559,3.2616,3.2637,3.2655,0,0,0,0,0,0,3.165,3.1722,3.1711,3.1851,3.1912,3.1978,3.205,3.2037,3.2113,3.2104,3.2118,3.2136,3.2266,3.2301,3.2233,3.2459,3.2396,3.2413,3.243,3.2451,3.2466,3.2454,3.218,0,0,0,0,0,3.1678,3.1762,3.1821,3.1939,3.197,3.2005,3.2055,3.2059,3.2123,3.2149,3.2193,3.2257,3.2343,3.2399,3.2481,3.2629,3.2645,3.2695,3.2711,3.2724,3.2738,3.282,3.2842,3.26,3.26,3.26,0,0,3.1735,3.1785,3.1838,3.1951,3.1998,3.2086,3.2027,3.2122,3.2188,3.2164,3.2286,3.2322,3.2394,3.2533,3.2597,3.2567,3.2809,3.2738,3.2747,3.2755,3.2833,3.2856,3.2876,3.2607,3.2606,3.2605,0,0,3.1885,3.1932,3.2035,3.2084,3.2157,3.218,3.2205,3.2274,3.2296,3.2419,3.2403,3.2483,3.263,3.2682,3.2728,3.29,3.2883,3.2926,3.3009,3.3088,3.3107,3.3124,3.3185,3.3207,3.294,3.2941,3.2941,0,3.1948,3.2079,3.209,3.2187,3.2238,3.222,3.2325,3.2373,3.2469,3.2505,3.247,3.2655,3.2702,3.2853,3.2895,3.2933,3.2963,3.2917,3.3103,3.3121,3.3137,3.3195,3.3218,3.2945,3.2945,3.2944,3.2944,0,3.2152,3.2243,3.2319,3.2411,3.247,3.2572,3.2599,3.2658,3.2659,3.2686,3.2812,3.2869,3.2962,3.2999,3.3,3.3151,3.313,3.31,3.3036,3.3164,3.3219,3.3242,3.2952,3.295,3.2949,3.2948,0,0,3.2336,3.2435,3.2462,3.2504,3.2584,3.2656,3.2757,3.2847,3.2897,3.2966,3.3051,3.3176,3.3149,3.3201,3.3209,3.3279,3.3412,3.324,3.3242,3.3269,3.3581,3.3602,3.3628,3.3402,3.3406,3.341,3.3575,0,3.2493,3.2669,3.2683,3.2843,3.2927,3.2913,3.3001,3.306,3.3089,3.3166,3.3198,3.3287,3.3244,3.3275,3.3344,3.3381,3.3474,3.3369,3.3482,3.3486,3.3462,3.3657,3.368,3.3832,3.3596,3.36,3.3603,0,3.2698,3.2771,3.2939,3.3008,3.3044,3.3123,3.3207,3.3281,3.3349,3.3365,3.3424,3.3422,3.3528,3.3462,3.3608,3.3537,3.3584,3.3609,3.3616,3.3625,3.3551,3.3671,3.3882,3.3904,3.3637,3.3634,3.3632,0,3.2815,3.2956,3.3074,3.3111,3.3194,3.325,3.3288,3.3351,3.3405,3.348,3.3515,3.3601,3.3648,3.3716,3.3738,3.3689,3.3884,3.382,3.39,3.39,3.3941,3.3937,3.416,3.3973,3.3973,3.3973,3.3972,0,3.2987,3.309,3.3128,3.32,3.3316,3.3332,3.3447,3.3482,3.3539,3.3619,3.3613,3.3688,3.3714,3.3795,3.3813,3.3931,3.3953,3.3969,3.3973,3.3969,3.3967,3.3999,3.3989,3.3979,3.3977,3.3976,3.3975,0,3.3136,3.3165,3.3293,3.3362,3.3382,3.3464,3.3524,3.3595,3.3623,3.3724,3.3749,3.3794,3.3888,3.3918,3.4032,3.4045,3.4183,3.4178,3.4159,3.4159,3.4237,3.4229,3.4488,3.4523,3.4314,3.4316,3.4318,0,3.3243,3.3322,3.3399,3.3452,3.3492,3.3577,3.3632,3.3652,3.371,3.3794,3.3855,3.3949,3.4024,3.4177,3.422,3.4308,3.4304,3.4389,3.4317,3.4311,3.4304,3.4298,3.4306,3.4401,3.4403,3.4405,3.4407,0,3.343,3.3441,3.3519,3.3604,3.3669,3.3737,3.3802,3.3846,3.3876,3.3942,3.4038,3.4097,3.4214,3.4307,3.4396,3.4437,3.4427,3.4429,3.4452,3.4448,3.4434,3.4442,3.4195,3.4423,3.4421,3.442,3.4419,3.4418,3.3561,3.363,3.3696,3.3784,3.3835,3.3897,3.3967,3.4004,3.4084,3.4179,3.4187,3.4292,3.4359,3.4478,3.4524,3.4606,3.4582,3.4615,3.4624,3.4631,3.4637,3.4422,3.4623,3.4622,3.4622,3.4622,3.4621,0,3.3747,3.3788,3.3869,3.3961,3.403,3.4015,3.4087,3.4147,3.4238,3.4302,3.4376,3.4488,3.4578,3.4629,3.472,3.4777,3.4775,3.48,3.4795,3.4804,3.4654,3.4624,3.48,3.48,3.48,3.48,3.48,3.48,3.3851,3.3968,3.3987,3.413,3.4171,3.4272,3.4315,3.4372,3.4422,3.4547,3.4622,3.4654,3.4713,3.4808,3.4891,3.4904,3.4937,3.4965,3.4975,3.4833,3.4815,3.4797,3.477,3.4973,3.4973,3.5118,3.512,3.5121]},{"header":{"parameterUnit":"m.s-1","parameterCategory":1,"la1":30.2991,"la2":30.254,"lo1":-89.0895,"lo2":-89.0444,"dy":0.0017,"dx":0.0017,"nx":28,"ny":28,"refTime":"2024-10-13T09:00:00:Z","depth":0,"parameterNumber":3,"parameterNumberName":"V-component_of_WINDS"},"data":[0,0,0,0,0,0,0,0,0,0,0,0,0,0,0,0,0,0,0,0,0,0,0,0,0,0,0,0,0,0,0,0,0,0,0,0,0,0,0,0,0,0,0,0,0,0,0,0,0,0,0,0,0,0,0,0,0,0,2.4947,2.4948,0,2.5069,2.507,2.5071,2.509,2.5089,2.5088,2.5087,2.5209,2.5213,2.5218,0,0,0,0,0,0,0,0,0,0,0,0,0,2.4726,2.473,2.4947,2.4948,2.495,2.5068,2.507,2.5072,2.5091,2.5089,2.5088,2.5087,2.5208,2.5213,2.5218,0,0,0,0,0,0,0,0,0,0,0,0,0,2.4832,2.4732,2.4946,2.4973,2.4977,2.5068,2.507,2.5072,2.5091,2.5089,2.5088,2.5086,2.5206,2.5212,2.5219,2.529,0,0,2.5238,2.5241,0,0,0,0,0,0,0,0,2.4826,2.484,2.4968,2.4972,2.4976,2.5063,2.5037,2.5145,2.5091,2.5048,2.5087,2.5085,2.5162,2.5172,2.5198,2.5296,2.5301,2.5239,2.5243,2.5245,2.5247,0,0,0,0,0,0,0,2.4819,2.4835,2.4995,2.497,2.4975,2.4978,2.4992,2.5058,2.5112,2.5051,2.5053,2.5067,2.5163,2.5192,2.5201,2.5303,2.5239,2.5244,2.5248,2.5251,2.5464,2.5466,0,0,0,0,0,0,2.4807,2.4829,2.4991,2.4998,2.4896,2.4984,2.4998,2.5036,2.5111,2.5121,2.5068,2.5068,2.5182,2.5193,2.5205,2.5293,2.5245,2.5251,2.5255,2.5462,2.5464,2.5466,0,0,0,0,0,0,2.4802,2.4821,2.4986,2.4914,2.4936,2.4989,2.5032,2.504,2.5068,2.5125,2.5134,2.5088,2.5181,2.5196,2.5269,2.5297,2.5254,2.526,2.546,2.5463,2.5465,2.5469,0,0,0,0,0,0,2.4796,2.482,2.4848,2.4915,2.4939,2.5049,2.5033,2.5043,2.5079,2.5079,2.5145,2.5154,2.5181,2.5259,2.5275,2.5305,2.5265,2.5458,2.5461,2.5464,2.5467,2.5472,2.5476,0,0,0,0,0,2.4788,2.4844,2.485,2.4869,2.4977,2.505,2.5064,2.5094,2.5082,2.511,2.5146,2.5152,2.5292,2.5266,2.5285,2.5317,2.5456,2.546,2.5464,2.5464,2.5471,2.5476,0,0,0,0,0,0,2.4779,2.4854,2.486,2.494,2.4989,2.5053,2.5091,2.51,2.5153,2.5151,2.5185,2.52,2.527,2.5301,2.5271,2.5389,2.5372,2.538,2.5367,2.5373,2.5377,2.5368,2.527,0,0,0,0,0,2.4787,2.4842,2.4903,2.4968,2.4992,2.5037,2.507,2.5089,2.514,2.5161,2.5202,2.5251,2.5306,2.5341,2.5395,2.5471,2.5485,2.5502,2.5507,2.551,2.5516,2.5557,2.5565,2.548,2.548,2.548,0,0,2.4803,2.485,2.4882,2.4967,2.5007,2.5061,2.5054,2.5113,2.5153,2.517,2.5241,2.5272,2.5329,2.5403,2.5438,2.5431,2.5543,2.5515,2.5518,2.5522,2.5562,2.557,2.5577,2.5483,2.5482,2.5482,0,0,2.4859,2.4901,2.4959,2.4999,2.5059,2.5089,2.5103,2.5166,2.5188,2.526,2.5273,2.532,2.5414,2.5454,2.5486,2.5555,2.5562,2.5572,2.5596,2.5635,2.5642,2.5648,2.5671,2.5679,2.5578,2.5578,2.5578,0,2.4871,2.4955,2.4987,2.5045,2.5081,2.5099,2.5156,2.5193,2.5268,2.5291,2.5283,2.54,2.544,2.5522,2.5539,2.5565,2.558,2.5564,2.5638,2.5645,2.5651,2.5673,2.5682,2.5579,2.5578,2.5578,2.5578,0,2.4965,2.5023,2.5062,2.5134,2.5175,2.5232,2.5271,2.5308,2.5323,2.5353,2.5424,2.5472,2.5535,2.5556,2.5571,2.5641,2.5634,2.5632,2.5615,2.5659,2.5681,2.569,2.558,2.5579,2.5579,2.5579,0,0,2.502,2.5109,2.5122,2.5155,2.5222,2.5267,2.5324,2.5386,2.5416,2.5467,2.5514,2.5593,2.559,2.5627,2.5646,2.5681,2.5731,2.5674,2.5676,2.5682,2.5808,2.5809,2.5819,2.5736,2.5738,2.5739,2.5803,0,2.5084,2.5188,2.5217,2.5304,2.5357,2.5374,2.5424,2.547,2.5499,2.5546,2.5578,2.5633,2.5626,2.5648,2.5683,2.5717,2.5757,2.5713,2.5779,2.5781,2.5764,2.583,2.5832,2.589,2.5812,2.5813,2.5814,0,2.5172,2.5224,2.5317,2.5376,2.5399,2.5444,2.5502,2.5548,2.56,2.5618,2.5658,2.5674,2.5733,2.5714,2.5794,2.5763,2.5792,2.5813,2.5816,2.5822,2.58,2.5837,2.5909,2.5917,2.5828,2.5827,2.5826,0,2.5201,2.5295,2.5362,2.5389,2.546,2.5491,2.5521,2.5572,2.5607,2.5657,2.568,2.5736,2.5767,2.5809,2.5839,2.5823,2.5916,2.59,2.5931,2.5931,2.595,2.5948,2.6026,2.597,2.597,2.5969,2.5969,0,2.5268,2.5323,2.5375,2.5416,2.5478,2.5511,2.5571,2.5603,2.5647,2.5693,2.5711,2.5754,2.5792,2.5839,2.5863,2.5924,2.5938,2.5954,2.5959,2.5952,2.5949,2.597,2.5967,2.5972,2.5971,2.5971,2.597,0,2.5311,2.5348,2.5422,2.5483,2.55,2.5543,2.5595,2.5634,2.5664,2.5722,2.5737,2.5783,2.5839,2.5874,2.5945,2.5961,2.6028,2.6033,2.6011,2.6013,2.6043,2.6039,2.6136,2.6149,2.6085,2.6086,2.6086,0,2.5351,2.5394,2.546,2.5493,2.5524,2.5577,2.5612,2.5646,2.5682,2.5743,2.5775,2.5832,2.588,2.5969,2.6008,2.6062,2.6067,2.6097,2.6075,2.6066,2.6066,2.6063,2.6066,2.61,2.6101,2.6101,2.6102,0,2.5417,2.5433,2.5485,2.5542,2.5584,2.5631,2.5677,2.5702,2.5743,2.5783,2.5841,2.5878,2.5951,2.6007,2.6065,2.6095,2.6104,2.6109,2.6118,2.6111,2.6096,2.6103,2.602,2.6106,2.6106,2.6105,2.6105,2.6105,2.5459,2.5497,2.555,2.5606,2.5644,2.5687,2.5727,2.5761,2.5811,2.5873,2.5889,2.595,2.5999,2.6077,2.6108,2.6155,2.615,2.6165,2.6168,2.6171,2.6171,2.6089,2.6165,2.6165,2.6165,2.6165,2.6165,0,2.5525,2.5559,2.5611,2.5675,2.5719,2.5725,2.5777,2.5812,2.5866,2.5911,2.5958,2.6024,2.6078,2.6121,2.6176,2.6205,2.6211,2.6218,2.6216,2.6222,2.6173,2.6158,2.6213,2.6213,2.6213,2.6213,2.6212,2.6212,2.5565,2.563,2.5652,2.5735,2.5769,2.5829,2.5858,2.5896,2.5932,2.6006,2.6051,2.6079,2.6123,2.6181,2.6231,2.6242,2.626,2.6267,2.6278,2.6231,2.6226,2.6221,2.6207,2.6271,2.6271,2.6324,2.6324,2.6325]}]]